Find Starlink 31280

NORAD ID: 58843 Int'l Des: 2024-017 Owner: SPXS Country: US Constellation: starlink operational
LEOCIRCULAR

Live Position

Loading 3D Globe...

About Starlink 31280

Description loading...

Upcoming Passes

Passes for default location (London). Set your location on the main map for personalized predictions.

Altitude History

Loading altitude history...

Two-Line Element Set

1 58843U 24017T 26104.08858928 .00000580 00000-0 31723-4 0 9996
2 58843 53.1625 40.0558 0001614 101.9011 258.2170 15.30202205125473
Epoch: Apr 14, 2026 • Age: 11 hours

Current Status

Altitude 494.1 km
Velocity 7.62 km/s
Sub-Earth Point -51.32°S, 64.7°W
Launch Date Jan 24, 2024
Age 2.2 years
Type internet

Technical Details

Classification Payload
Mass 730.00 kg
Dry Mass 700.00 kg
Total Mass 730.00 kg
Length 0.30 m
Diameter 4.10 m
Span 29.00 m
Shape Box + pan
Manufacturer SPXS
Bus Type Starlink V2M
Phase Status In Orbit
Owner/State SPXS/US

Most Searched